{"data":{"norad_id":56927,"epoch":"2026-05-25T01:10:20.432640Z","epoch_age_seconds":70558,"freshness":"FRESH","line1":"1 56927U 23083BD  26145.04884760 -.00000813  00000+0 -20016-4 0  9996","line2":"2 56927  43.0015 268.5149 0001105 270.7542  89.3183 15.27576598164528","mean_motion":15.27576598,"eccentricity":0.0001105,"inclination_deg":43.0015,"raan_deg":268.5149,"arg_perigee_deg":270.7542,"mean_anomaly_deg":89.3183,"bstar":-2.0016e-5,"rev_number":16452,"period_min":94.266958651065,"perigee_km":482.30112068117,"apogee_km":483.81744505968,"semimajor_km":6861.1962828704,"source":"CELESTRAK","updated_at":"2026-05-25T13:38:18.207572Z"}}